{"data":{"norad_id":65996,"intl_designator":"2025-231B","name":"HULIANWANG DIGUI-88","alt_names":[],"object_type":"PAYLOAD","status":"ACTIVE","operator":null,"country":"PRC","launch_date":"2025-10-16","launch_site_code":"WSC","launch_vehicle":null,"mission":null,"orbit_class":"UNKNOWN","rcs_meters":null,"size_class":null,"mass_kg":null,"dimensions":null,"purposes":[],"wikipedia_slug":null,"has_3d_model":false,"image_url":null,"decayed_at":null,"tle_current":{"epoch":"2026-05-25T00:26:11.956416Z","epoch_age_seconds":70574,"freshness":"FRESH","line1":"1 65996U 25231B   26145.01819394 -.00000107  00000+0  37004-4 0  9997","line2":"2 65996  49.9995 258.9959 0000930 149.9106 210.1819 13.29328353 29801","mean_motion":13.29328353,"eccentricity":9.3e-5,"inclination_deg":49.9995,"raan_deg":258.9959,"arg_perigee_deg":149.9106,"mean_anomaly_deg":210.1819,"bstar":3.7004e-5,"rev_number":2980,"period_min":108.32538076467,"perigee_km":1148.5976377064,"apogee_km":1149.9977405586,"semimajor_km":7527.4346891325,"source":"CELESTRAK","updated_at":"2026-05-25T13:38:05.883070Z"}}}